Powrót do katalogu

CZ-3C DEB

VEB

AktywnyHEO
NORAD 38095·DEBRIS·🇨🇳 China

Wystrzelony Feb 24, 2012 z Xichang Satellite Launch Center

Loading…

Następne Przeloty (najbliższe 24 godziny)

TLE

ŚwieżeSource: Space-Track

Epoka: Sep 14, 2026, 14:12 UTC

1 38095U 12008C   26257.59235234  .00013486  00000-0  15495-2 0  9999
2 38095  21.0021 310.5700 6494713 175.2564 196.8945  3.34879660142907

Śledź CZ-3C DEB w czasie rzeczywistym z AllMySat

Download on the App Store